Location: Ottawa
(45.4170°N, 75.7000°W)
Time: 05:50:51
(UTC-05:00)

ISS - Visible Passes

Search period start: 09 February 2026 00:00
Search period end: 19 February 2026 00:00
Orbit: 414 x 429 km, 51.6° (Epoch: 9 February)

Date Brightness Start Highest point End Pass type
(mag) Time Alt. Az. Time Alt. Az. Time Alt. Az.
10 Feb -0.8 06:30:13 10° S 06:32:32 18° SE 06:34:51 10° E visible
11 Feb -0.5 05:44:45 10° SSE 05:45:45 11° SE 05:46:43 10° ESE visible
12 Feb -2.6 06:31:51 10° SW 06:35:03 45° SE 06:38:16 10° ENE visible
13 Feb -1.9 05:45:11 10° SSW 05:48:06 28° SE 05:51:03 10° ENE visible
14 Feb -1.4 05:00:02 16° SSE 05:01:11 18° SE 05:03:35 10° E visible
14 Feb -3.8 06:34:22 10° WSW 06:37:42 74° NNW 06:41:02 10° ENE visible
15 Feb -0.4 04:15:21 10° ESE 04:15:21 10° ESE 04:15:30 10° ESE visible
15 Feb -3.7 05:48:22 19° SW 05:50:36 74° SSE 05:53:57 10° ENE visible
16 Feb -3.0 05:03:29 47° SSE 05:03:33 47° SE 05:06:47 10° ENE visible
17 Feb -0.8 04:18:27 17° E 04:18:27 17° E 04:19:29 10° ENE visible
17 Feb -3.4 05:51:27 23° W 05:53:14 51° NNW 05:56:30 10° NE visible
18 Feb -3.6 05:06:18 66° NNE 05:06:18 66° NNE 05:09:22 10° ENE visible
